Location: Newark
(55.4390°N, 25.0170°E)
Time: 11:35:43
(UTC+00:00)

ISS - Pass Details

Date: 24 September 2022
Orbit: 414 x 420 km, 51.6° (Epoch: 09 December)

Event Time Altitude Azimuth Distance (km) Brightness Sun altitude
Rises 16:14:42 0° 239° (WSW) 2,403 1.3 -0.9°
Reaches altitude 10° 16:16:55 10° 230° (SW) 1,536 0.0 -1.2°
Drops below altitude 10° 16:23:14 10° 98° (E) 1,533 -1.6 -2.1°
Enters shadow 16:24:42 - 91° (E) 2,101 -0.9 -2.3°
Exits shadow 17:00:14 -74° 75° (ENE) 12,706 3.6 -7.4°
Maximum altitude 17:56:39 44° 184° (S) 612 -3.1 -15.1°
